Stündliche Wetter Abdulnasyrovo

Heute, 17 Juni, Donnerstag

Zeit Temperatur Niederschläge Wind Luftdruck Luftfeuchtigkeit
00:00 +21°C° 0 mm 1 m/S 723 mmHg 53%
01:00 +21°C° 0 mm 1 m/S 723 mmHg 53%
02:00 +21°C° 0 mm 1 m/S 723 mmHg 55%
03:00 +20°C° 0 mm 1 m/S 722 mmHg 56%
04:00 +20°C° 0 mm 1 m/S 722 mmHg 57%
05:00 +22°C° 0 mm 1 m/S 722 mmHg 53%
06:00 +23°C° 0 mm 2 m/S 722 mmHg 49%
07:00 +25°C° 0 mm 3 m/S 721 mmHg 45%
08:00 +27°C° 0 mm 4 m/S 721 mmHg 40%
09:00 +29°C° 0 mm 5 m/S 721 mmHg 35%
10:00 +30°C° 0 mm 6 m/S 721 mmHg 30%
11:00 +32°C° 0 mm 6 m/S 721 mmHg 31%
12:00 +32°C° 0 mm 6 m/S 721 mmHg 33%
13:00 +33°C° 0 mm 6 m/S 721 mmHg 34%
14:00 +32°C° 0 mm 7 m/S 721 mmHg 37%
15:00 +31°C° 0 mm 8 m/S 720 mmHg 40%
16:00 +29°C° 0 mm 8 m/S 720 mmHg 42%
17:00 +27°C° 0 mm 8 m/S 720 mmHg 53%
18:00 +24°C° 0 mm 7 m/S 720 mmHg 63%
19:00 +23°C° 0 mm 7 m/S 720 mmHg 73%
20:00 +21°C° 0 mm 7 m/S 721 mmHg 74%
21:00 +18°C° 0 mm 7 m/S 721 mmHg 75%
22:00 +17°C° 0 mm 7 m/S 722 mmHg 76%
23:00 +16°C° 0 mm 6 m/S 722 mmHg 77%

Morgen, 18 Juni, Freitag

Zeit Temperatur Niederschläge Wind Luftdruck Luftfeuchtigkeit
00:00 +15°C° 0 mm 6 m/S 722 mmHg 77%
01:00 +14°C° 0 mm 5 m/S 722 mmHg 78%
02:00 +13°C° 0 mm 5 m/S 722 mmHg 76%
03:00 +13°C° 0 mm 5 m/S 722 mmHg 74%
04:00 +12°C° 0 mm 5 m/S 723 mmHg 72%
05:00 +14°C° 0 mm 5 m/S 723 mmHg 66%
06:00 +15°C° 0 mm 6 m/S 723 mmHg 61%
07:00 +16°C° 0 mm 6 m/S 724 mmHg 55%
08:00 +19°C° 0 mm 6 m/S 724 mmHg 50%
09:00 +20°C° 0 mm 6 m/S 724 mmHg 44%
10:00 +21°C° 0 mm 6 m/S 725 mmHg 39%
11:00 +21°C° 0 mm 6 m/S 725 mmHg 36%
12:00 +22°C° 0 mm 6 m/S 725 mmHg 34%
13:00 +23°C° 0 mm 6 m/S 726 mmHg 31%
14:00 +23°C° 0 mm 7 m/S 726 mmHg 31%
15:00 +22°C° 0 mm 7 m/S 726 mmHg 31%
16:00 +22°C° 0 mm 7 m/S 726 mmHg 31%
17:00 +21°C° 0 mm 6 m/S 727 mmHg 35%
18:00 +20°C° 0 mm 6 m/S 727 mmHg 39%
19:00 +19°C° 0 mm 6 m/S 727 mmHg 43%
20:00 +16°C° 0 mm 5 m/S 728 mmHg 46%
21:00 +14°C° 0 mm 4 m/S 728 mmHg 49%
22:00 +12°C° 0 mm 3 m/S 729 mmHg 52%
23:00 +12°C° 0 mm 3 m/S 729 mmHg 54%

übermorgen, 19 Juni, Samstag

Zeit Temperatur Niederschläge Wind Luftdruck Luftfeuchtigkeit
00:00 +11°C° 0 mm 3 m/S 729 mmHg 57%
01:00 +11°C° 0 mm 3 m/S 730 mmHg 59%
02:00 +10°C° 0 mm 3 m/S 730 mmHg 60%
03:00 +10°C° 0 mm 3 m/S 730 mmHg 61%
04:00 +10°C° 0 mm 2 m/S 730 mmHg 61%
05:00 +13°C° 0 mm 2 m/S 731 mmHg 58%
06:00 +14°C° 0 mm 2 m/S 731 mmHg 54%
07:00 +16°C° 0 mm 2 m/S 731 mmHg 50%
08:00 +17°C° 0 mm 3 m/S 731 mmHg 46%
09:00 +19°C° 0 mm 3 m/S 731 mmHg 42%
10:00 +20°C° 0 mm 4 m/S 731 mmHg 37%
11:00 +21°C° 0 mm 4 m/S 731 mmHg 36%
12:00 +22°C° 0 mm 4 m/S 731 mmHg 35%
13:00 +22°C° 0 mm 4 m/S 730 mmHg 34%
14:00 +23°C° 0 mm 5 m/S 730 mmHg 35%
15:00 +23°C° 0 mm 5 m/S 730 mmHg 35%
16:00 +25°C° 0 mm 5 m/S 729 mmHg 36%
17:00 +23°C° 0 mm 5 m/S 729 mmHg 41%
18:00 +22°C° 0 mm 5 m/S 729 mmHg 46%
19:00 +21°C° 0 mm 5 m/S 729 mmHg 52%
20:00 +19°C° 0 mm 5 m/S 729 mmHg 58%
21:00 +17°C° 0 mm 5 m/S 729 mmHg 65%
22:00 +15°C° 0 mm 4 m/S 729 mmHg 71%
23:00 +15°C° 0 mm 5 m/S 729 mmHg 73%

20 Juni, Sonntag

Zeit Temperatur Niederschläge Wind Luftdruck Luftfeuchtigkeit
00:00 +15°C° 0 mm 5 m/S 728 mmHg 75%
01:00 +15°C° 0 mm 5 m/S 728 mmHg 77%
02:00 +15°C° 0 mm 5 m/S 728 mmHg 80%
03:00 +14°C° 0 mm 5 m/S 728 mmHg 82%
04:00 +14°C° 0 mm 5 m/S 727 mmHg 85%
05:00 +16°C° 0 mm 6 m/S 727 mmHg 80%
06:00 +19°C° 0 mm 6 m/S 727 mmHg 76%
07:00 +20°C° 0 mm 7 m/S 727 mmHg 71%
08:00 +22°C° 0 mm 7 m/S 727 mmHg 64%
09:00 +24°C° 0 mm 7 m/S 727 mmHg 57%
10:00 +27°C° 0 mm 8 m/S 727 mmHg 50%
11:00 +27°C° 0 mm 7 m/S 727 mmHg 48%
12:00 +28°C° 0 mm 7 m/S 727 mmHg 47%
13:00 +29°C° 0 mm 7 m/S 726 mmHg 45%
14:00 +28°C° 0 mm 7 m/S 726 mmHg 45%
15:00 +28°C° 0 mm 7 m/S 726 mmHg 46%
16:00 +28°C° 0 mm 7 m/S 726 mmHg 46%
17:00 +28°C° 0 mm 7 m/S 726 mmHg 50%
18:00 +27°C° 0 mm 7 m/S 726 mmHg 53%
19:00 +26°C° 0 mm 7 m/S 727 mmHg 57%
20:00 +23°C° 0 mm 6 m/S 727 mmHg 64%
21:00 +22°C° 0 mm 5 m/S 727 mmHg 71%
22:00 +20°C° 0 mm 4 m/S 727 mmHg 78%
23:00 +19°C° 0 mm 4 m/S 727 mmHg 82%

21 Juni, Montag

Zeit Temperatur Niederschläge Wind Luftdruck Luftfeuchtigkeit
00:00 +18°C° 0 mm 3 m/S 727 mmHg 86%
01:00 +17°C° 0 mm 3 m/S 727 mmHg 90%
02:00 +16°C° 0 mm 3 m/S 727 mmHg 87%
03:00 +14°C° 0 mm 3 m/S 727 mmHg 84%
04:00 +15°C° 0 mm 2 m/S 728 mmHg 80%
05:00 +16°C° 0 mm 3 m/S 728 mmHg 70%
06:00 +17°C° 0 mm 3 m/S 728 mmHg 61%
07:00 +19°C° 0 mm 4 m/S 729 mmHg 51%
08:00 +20°C° 0 mm 4 m/S 729 mmHg 44%
09:00 +21°C° 0 mm 4 m/S 729 mmHg 38%
10:00 +23°C° 0 mm 4 m/S 729 mmHg 32%
11:00 +25°C° 0 mm 4 m/S 729 mmHg 30%
12:00 +26°C° 0 mm 3 m/S 729 mmHg 29%
13:00 +27°C° 0 mm 3 m/S 729 mmHg 28%
14:00 +27°C° 0 mm 3 m/S 729 mmHg 28%
15:00 +27°C° 0 mm 3 m/S 729 mmHg 29%
16:00 +28°C° 0 mm 3 m/S 728 mmHg 29%
17:00 +27°C° 0 mm 3 m/S 728 mmHg 34%
18:00 +26°C° 0 mm 3 m/S 728 mmHg 39%
19:00 +25°C° 0 mm 3 m/S 728 mmHg 45%
20:00 +23°C° 0 mm 2 m/S 729 mmHg 48%
21:00 +19°C° 0 mm 2 m/S 729 mmHg 52%
22:00 +17°C° 0 mm 2 m/S 729 mmHg 56%
23:00 +18°C° 0 mm 1 m/S 729 mmHg 56%

22 Juni, Dienstag

Zeit Temperatur Niederschläge Wind Luftdruck Luftfeuchtigkeit
00:00 +16°C° 0 mm 1 m/S 729 mmHg 56%
01:00 +15°C° 0 mm 0 m/S 729 mmHg 56%
02:00 +15°C° 0 mm 0 m/S 729 mmHg 56%
03:00 +16°C° 0 mm 1 m/S 729 mmHg 56%
04:00 +15°C° 0 mm 1 m/S 729 mmHg 56%
05:00 +18°C° 0 mm 1 m/S 729 mmHg 53%
06:00 +19°C° 0 mm 2 m/S 729 mmHg 50%
07:00 +20°C° 0 mm 2 m/S 729 mmHg 46%
08:00 +22°C° 0 mm 3 m/S 729 mmHg 43%
09:00 +25°C° 0 mm 3 m/S 729 mmHg 40%
10:00 +27°C° 0 mm 4 m/S 729 mmHg 36%
11:00 +28°C° 0 mm 4 m/S 729 mmHg 35%
12:00 +29°C° 0 mm 4 m/S 729 mmHg 33%
13:00 +30°C° 0 mm 4 m/S 728 mmHg 31%
14:00 +30°C° 0 mm 5 m/S 728 mmHg 32%
15:00 +30°C° 0 mm 5 m/S 728 mmHg 33%
16:00 +30°C° 0 mm 5 m/S 727 mmHg 34%
17:00 +29°C° 0 mm 5 m/S 727 mmHg 41%
18:00 +28°C° 0 mm 5 m/S 727 mmHg 47%
19:00 +27°C° 0 mm 4 m/S 727 mmHg 53%
20:00 +25°C° 0 mm 4 m/S 726 mmHg 59%
21:00 +22°C° 0 mm 4 m/S 726 mmHg 66%
22:00 +20°C° 0 mm 3 m/S 726 mmHg 73%
23:00 +20°C° 0 mm 3 m/S 726 mmHg 75%
Mehr zeigen

Wir brauchen deine Erlaubnis

Meteoprog und unser Service Anbieter werden persönliche Daten aufbewahren, so wie Cookies, Geräte Bezeichnung oder ähnliche Technologien von deinem Gerät und Prozess, so wie Persönliche Daten Inhalte und Werbungen, genauso wie social Media und den Verkehr zu analysieren.

  • Aufbewahrung und/oder Zugang zu deiner Geräte Informationen.

    Cookies, Geräte Bezeichnung oder andere Informationen, können aufbewahrt oder Zugang zu deinem Gerät erhalten, für den Grund, der oben angegeben wird.

  • Personalisierte Werbung und Inhalte, Messungen, Einblick in das Publikum und Produkt Entwicklung.

    Werbungen und Inhalte können personalisiert werden, basierend auf ein Profil. Mehr Daten können besser personalisierte Werbungen und Inhalte hinzufügen. Werbung und Inhalte können gezeigt und gemessen werden. Einblicke über das Publikum, welche die Werbung gesehen haben und den Inhalt, können abgeleitet werden. So wie Daten können genutzt werden, um es zu verbessern oder die Benutzer Erfahrung zu verbessern das System und die Software.

Wenn du “Ich stimme zu” klickst, erlaubst du uns, die Cookies zu benutzen die Geräte Bezeichnung, den Web oder ähnliche Technologien zu benutzen. Deine Settings, können in deinem Gerät bei deinem Browser geändert werden.

Für den bestimmten Zweck, berechtigten Interessen beruhen darauf, mehr als auf den Inhalt. Du kannst mehr darüber in unseren Privaten und Cookie Politik lesen.